Location: Kuppenheim
(48.8299°N, 8.2568°E)
Time: 10:24:28
(UTC+00:00)

USA 307 - Pass Details

Date: 20 June 2021
Orbit: 565 x 576 km, 54.0° (Epoch: 17 July)

Event Time Altitude Azimuth Distance (km) Brightness Sun altitude
Exits shadow 02:13:23 - 243° (WSW) 1,920 5.0 -8.9°
Reaches altitude 10° 02:13:31 10° 243° (WSW) 1,866 5.0 -8.9°
Maximum altitude 02:17:46 85° 331° (NNW) 575 2.9 -8.5°
Drops below altitude 10° 02:22:02 10° 62° (ENE) 1,868 6.8 -8.0°
Sets 02:24:17 0° 63° (ENE) 2,766 7.8 -7.8°
